Regional Weather Roundup
Issued by NWS

Home | Current Version | Previous Version | Text Only | Print | Product List | Glossary Off
Versions: 1 2 3 4 5 6 7 8 9 10 11 12 13 14 15 16 17 18 19 20 21 22 23 24 25 26 27 28 29 30 31 32 33 34 35 36 37 38 39 40 41 42 43 44 45 46 47 48 49

000
ASUS45 KBOU 012307
RWRCO

WEATHER ROUNDUP FOR COLORADO
NATIONAL WEATHER SERVICE DENVER/BOULDER CO
400 PM MST SUN MAR 01 2015

NOTE: "FAIR" INDICATES FEW OR NO CLOUDS BELOW 12000 FEET WITH NO
SIGNIFICANT WEATHER AND/OR OBSTRUCTIONS TO VISIBILITY.

COZ001>005-013-030-031-020000-
...NORTHWEST COLORADO...

CITY           SKY/WX    TMP DP  RH WIND       PRES   REMARKS
CRAIG            N/A     35  24  64 E5        30.07F WCI  31
HAYDEN         MOSUNNY   30  21  69 SE5       30.07F WCI  25
MEEKER         PTSUNNY   35  27  72 CALM      30.05F
MOUNT WERNER   NOT AVBL
STEAMBOAT SPGS MOSUNNY   32  22  66 CALM      30.06F
WALDEN         PTSUNNY   30  19  64 CALM      30.05S
$$

COZ006>008-011-020000-
...WEST CENTRAL VALLEYS...

CITY           SKY/WX    TMP DP  RH WIND       PRES   REMARKS
GRAND JUNCTION CLOUDY    44  30  57 SE7       30.05S
MONTROSE       CLOUDY    38  29  70 CALM      30.09R
EAGLE          CLOUDY    39  25  56 SW8       30.09S
RIFLE          CLOUDY    45  24  43 CALM      30.05F
DELTA          CLOUDY    46  30  55 E3        30.07S
NUCLA          LGT RAIN  36  32  87 CALM      30.10S
$$

COZ017>023-064>068-020000-
...SOUTHWEST COLORADO...

CITY           SKY/WX    TMP DP  RH WIND       PRES   REMARKS
DURANGO        CLOUDY    36  32  85 N7        30.08S
CORTEZ         CLOUDY    42  35  76 CALM      30.05S
PAGOSA SPRINGS LGT SNOW  35  34  96 CALM      30.11R
TELLURIDE      LGT SNOW  32  31  96 CALM      30.07S
WOLF CREEK PAS CLOUDY    23  23 100 SW23      30.12R WCI   7
$$

COZ009-010-012-014-032>034-037-058>063-020000-
...CENTRAL COLORADO...

CITY           SKY/WX    TMP DP  RH WIND       PRES   REMARKS
ASPEN          LGT SNOW  31  27  85 CALM      30.06F FOG
BUENA VISTA    CLOUDY    35  25  67 NW3       30.05S
COPPER MTN     LGT SNOW  23  16  74 W3        30.07S VSB 1
BERTHOUD PASS  CLOUDY    12   7  79 MISG      30.08S HAZE
COTTONWOOD PAS LGT SNOW  32  27  80 CALM      30.07S
GUNNISON       CLOUDY    30  25  80 N6        30.11S WCI  24
KREMMLING      CLOUDY    36  18  48 SW12G18   30.06S
LEADVILLE      LGT SNOW  26  21  81 CALM      30.06S
SALIDA         CLOUDY    39  28  64 S10       30.12S
SUNLIGHT       MIX PCPN  27  23  86 CALM        N/A
WILKERSON PASS CLOUDY    27  19  74 SW5       30.11R WCI  21
$$

COZ069>075-020000-
...SAN LUIS VALLEY/SANGRE DE CRISTO MOUNTAINS...

CITY           SKY/WX    TMP DP  RH WIND       PRES   REMARKS
ALAMOSA        CLOUDY    35  28  75 CALM      30.08R
LA VETA PASS   CLOUDY    32  28  86 S15G25    30.10S WCI  22
SAGUACHE       LGT SNOW  32  30  93 S3        30.09S
$$

COZ035-036-038>040-020000-
...NORTHERN COLORADO FRONT RANGE...

CITY           SKY/WX    TMP DP  RH WIND       PRES   REMARKS
DENVER INTL AP PTSUNNY   25  15  66 CALM      30.22S
DMNS CITY PARK   N/A     26  15  63 NE5       30.23S WCI  20
AURORA         MOSUNNY   24  14  66 NE5       30.22S WCI  18
FRONT RANGE AP NOT AVBL
ERIE MUNI ARPT CLOUDY    26  17  67 E3        30.24S
BOULDER MUN AP PTSUNNY   27  18  69 CALM      30.23S
CENTENNIAL     PTSUNNY   23  15  71 E6        30.20R WCI  16
BROOMFIELD     NOT AVBL
FORT COLLINS   PTSUNNY   27  16  63 SE5       30.25S WCI  21
LONGMONT       PTSUNNY   32  18  55 CALM      30.26S
$$

COZ041-046-047-076>085-087-088-020000-
...PIKES PEAK/PALMER DIVIDE AND SOUTHERN FOOTHILLS...

CITY           SKY/WX    TMP DP  RH WIND       PRES   REMARKS
COLO. SPRINGS  CLOUDY    26  20  77 S10       30.18S FOG     WCI  16
A. F. ACADEMY  MOSUNNY   27  16  64 S5        30.15R WCI  21
ELLICOTT       NOT AVBL
FALCON         CLOUDY    24  16  73 E8        30.17R WCI  15
FORT CARSON    CLOUDY    24  19  80 S9        30.19R WCI  15
LIMON          CLOUDY    26  17  68 N7        30.22R WCI  18
MONUMENT HILL  CLOUDY    23  16  74 NE5       30.14F WCI  17
TRINIDAD       CLOUDY    24  18  77 N10       30.20R WCI  14
$$

COZ042>045-048>051-090-091-020000-
...NORTHEAST COLORADO...

CITY           SKY/WX    TMP DP  RH WIND       PRES   REMARKS
GREELEY ARPT   CLOUDY    28  16  59 W5        30.24S WCI  23
AKRON          PTSUNNY   31  15  52 CALM      30.23S
BURLINGTON     PTSUNNY   31  17  56 NE10      30.25R WCI  22
WRAY           PTSUNNY   36  14  40 N8        30.29R
STERLING       PTSUNNY   34  18  51 N3        30.26S
HOLYOKE        NOT AVBL
FORT MORGAN    CLOUDY    31  15  52 NE5       30.26S WCI  26
$$

COZ086-089-092>099-020000-
...SOUTHEAST COLORADO...

CITY           SKY/WX    TMP DP  RH WIND       PRES   REMARKS
PUEBLO         CLOUDY    26  19  74 S6        30.24R WCI  19
LA JUNTA       CLOUDY    31  20  63 CALM      30.27R
LAMAR          CLOUDY    31  21  66 NE7       30.25F WCI  24
SPRINGFIELD      N/A     27  20  75 NE7       30.23F WCI  19
$$


USA.gov is the U.S. government's official web portal to all federal, state and local government web resources and services.